Showing default

IRIDIUM 129, 42958

Orbit data source: Space-Track

IRIDIUM 129, 42958 is a payload satellite owned by Iridium (US) in LEO that was launched on Mon, 09 Oct 2017 UTC via an FALCON 9 launch vehicle from the Air Force Western Test Range (AFWTR). Payload-class satellites include a variety of spacecraft equipped with specific instruments for various scientific and technological missions. These include communications satellites like Starlink; space stations such as the ISS; scientific satellites like the Hubble; Earth observation satellites from companies like Planet Labs, Umbra, and HawkEye 360; GPS; miniature CubeSats for education and research; and military/defense satellites.

Loading next visibility...
Identifier
42958, 2017-061D
Orbit
LEO
Country
Flag of USUS
Related business
Manufacturer
OATK SSG Gilbert
Mission
Operational Commercial Communications
Bus & Motor
ELITEBUS, Unknown motor
Mass
860 kg wet, 700 kg dry
Launch date (UTC)
2017-10-09 (8 years ago)
Launch vehicle
FALCON 9
Launch site
Air Force Western Test Range (AFWTR)
Object type
Payload
Rocket body
Debris
Shape & HBR
Trap Box + 2 Pan, 4.8 m
Radar Cross Section
10.154 m², Large (>1 m²)

Expand to show TLE details & history
Last TLE update: 17 hours ago

TLE from 17 hours ago
0 IRIDIUM 129
1 42958U 17061D   25308.92239210 -.00000019  00000-0 -13780-4 0  9994
2 42958  86.3940 119.0311 0002357  89.9004 270.2462 14.34217271422657
Epoch: 2025-11-04T22:08Z
TLE epoch observation values (Epoch: 2025-11-04T22:08:14.677Z)
Latitude
-0.00001°
Longitude
102.56748°
Altitude
780.713 km
Speed
7.463 km/s
True Right ascension
07h 56m 07s
True Declination
0° 00' 00"
Sunlit
Object was in daylight at epoch
Visualization orbit readout
Latitude
Unknown
Longitude
Unknown
Altitude
Unknown
Speed
Unknown
Apparent Right ascension
Unknown
Apparent Declination
Unknown
Sunlit
N/A
Visualization observer readout
Local Sidereal Time
11:34:56
Azimuth
Unknown
Elevation
Unknown
Doppler factor
Unknown
Orbital elements
Apogee altitude
776.319 km
Perigee altitude
772.947 km
Semi-major axis
7,152.77 km
Eccentricity
0.00024
Inclination
86.394°
RAAN
119.0311°
Arg. of periapsis
89.9004°
True anomaly
270.21919°
Mean anomaly
270.2462°
Eccentric anomaly
270.2327°
Mean motion
3.58783 °/min
Orbital period
100.34 mins
BSTAR
-0.00001378
Loading maneuver chart data...
Computing Atmospheric mass density...
Loading historical data...
Loading historical data...
Loading historical data...
Loading historical data...
Loading historical data...
Loading historical data...
Loading historical data...

Documentation

Showing up to 5 results
|